datetime,min air temp
2018-10-01,41.9
2018-10-02,48.2
2018-10-03,49.28
2018-10-04,34.34
2018-10-05,33.08
2018-10-06,40.1
2018-10-07,35.06
2018-10-08,41.72
2018-10-09,36.32
2018-10-10,35.42
2018-10-11,37.4
2018-10-12,36.5
2018-10-13,33.8
2018-10-14,36.32
2018-10-15,41.18
2018-10-16,41.54
2018-10-17,40.1
2018-10-18,37.22
2018-10-19,39.56
2018-10-20,42.62
2018-10-21,38.48
2018-10-22,37.94
2018-10-23,37.22
2018-10-24,37.22
2018-10-25,35.78
2018-10-26,39.2
2018-10-27,41.72
2018-10-28,39.2
2018-10-29,33.08
2018-10-30,32.36
2018-10-31,36.5
2018-11-01,40.46
2018-11-02,35.96
2018-11-03,34.16
2018-11-04,33.62
2018-11-05,34.88
2018-11-06,29.66
2018-11-07,28.58
2018-11-08,31.28
2018-11-09,31.1
2018-11-10,27.68
2018-11-11,32.72
2018-11-12,38.66
2018-11-13,31.46
2018-11-14,29.66
2018-11-15,33.26
2018-11-16,35.24
2018-11-17,34.88
2018-11-18,33.08
2018-11-19,32.72
2018-11-20,33.44
2018-11-21,38.12
2018-11-22,33.62
2018-11-23,34.16
2018-11-24,33.8
2018-11-25,32.9
2018-11-26,36.32
2018-11-27,35.42
2018-11-28,33.08
2018-11-29,33.98
2018-11-30,32.0
2018-12-01,30.2
2018-12-02,20.66
2018-12-03,20.48
2018-12-04,24.98
2018-12-05,28.58
2018-12-06,25.88
2018-12-07,23.18
2018-12-08,30.2
2018-12-09,31.82
2018-12-10,28.76
2018-12-11,27.68
2018-12-12,28.76
2018-12-13,26.6
2018-12-14,29.66
2018-12-15,28.4
2018-12-16,33.08
2018-12-17,31.28
2018-12-18,35.6
2018-12-19,31.46
2018-12-20,32.18
2018-12-21,22.64
2018-12-22,23.0
2018-12-23,33.62
2018-12-24,33.98
2018-12-25,28.04
2018-12-26,21.74
2018-12-27,26.24
2018-12-28,19.4
2018-12-29,26.78
2018-12-30,28.04
2018-12-31,18.68
2019-01-01,21.02
2019-01-02,24.62
2019-01-03,27.14
2019-01-04,26.78
2019-01-05,31.46
2019-01-06,28.76
2019-01-07,21.56
2019-01-08,34.7
2019-01-09,35.42
2019-01-10,32.72
2019-01-11,37.04
2019-01-12,35.24
2019-01-13,34.16
2019-01-14,27.32
2019-01-15,31.82
2019-01-16,34.52
2019-01-17,31.28
2019-01-18,29.3
2019-01-19,35.42
2019-01-20,31.46
2019-01-21,26.42
2019-01-22,26.24
2019-01-23,33.26
2019-01-24,30.02
2019-01-25,25.88
2019-01-26,33.26
2019-01-27,30.56
2019-01-28,32.9
2019-01-29,29.84
2019-01-30,28.58
2019-01-31,29.3
2019-02-01,37.76
2019-02-02,34.52
2019-02-03,30.38
2019-02-04,22.28
2019-02-05,21.56
2019-02-06,13.64
2019-02-07,13.64
2019-02-08,23.9
2019-02-09,19.58
2019-02-10,20.12
2019-02-11,24.26
2019-02-12,26.96
2019-02-13,31.64
2019-02-14,30.56
2019-02-15,27.68
2019-02-16,24.8
2019-02-17,23.18
2019-02-18,22.1
2019-02-19,21.2
2019-02-20,25.7
2019-02-21,12.74
2019-02-22,6.44
2019-02-23,24.44
2019-02-24,31.1
2019-02-25,27.68
2019-02-26,21.92
2019-02-27,25.52
2019-02-28,9.68
2019-03-01,16.34
2019-03-02,28.04
2019-03-03,23.0
2019-03-04,26.24
2019-03-05,27.14
2019-03-06,29.84
2019-03-07,18.5
2019-03-08,17.78
2019-03-09,21.2
2019-03-10,26.42
2019-03-11,20.84
2019-03-12,27.5
2019-03-13,22.82
2019-03-14,18.86
2019-03-15,24.8
2019-03-16,26.42
2019-03-17,30.74
2019-03-18,36.14
2019-03-19,36.68
2019-03-20,32.72
2019-03-21,30.38
2019-03-22,30.02
2019-03-23,32.72
2019-03-24,24.98
2019-03-25,32.72
2019-03-26,28.4
2019-03-27,31.64
2019-03-28,31.28
2019-03-29,29.48
2019-03-30,30.92
2019-03-31,29.66
2019-04-01,35.78
2019-04-02,36.5
2019-04-03,34.88
2019-04-04,36.5
2019-04-05,32.72
2019-04-06,35.24
2019-04-07,41.18
2019-04-08,35.78
2019-04-09,32.36
2019-04-10,31.28
2019-04-11,33.44
2019-04-12,32.36
2019-04-13,31.46
2019-04-14,32.9
2019-04-15,32.36
2019-04-16,33.8
2019-04-17,33.8
2019-04-18,36.14
2019-04-19,39.2
2019-04-20,37.04
2019-04-21,35.24
2019-04-22,33.26
2019-04-23,38.12
2019-04-24,40.46
2019-04-25,41.18
2019-04-26,35.78
2019-04-27,32.54
2019-04-28,31.46
2019-04-29,33.98
2019-04-30,33.44
2019-05-01,32.36
2019-05-02,30.74
2019-05-03,33.08
2019-05-04,36.5
2019-05-05,38.3
2019-05-06,39.2
2019-05-07,39.92
2019-05-08,38.48
2019-05-09,48.56
2019-05-10,44.96
2019-05-11,43.7
2019-05-12,43.52
2019-05-13,40.46
2019-05-14,44.78
2019-05-15,44.96
2019-05-16,38.3
2019-05-17,37.22
2019-05-18,36.5
2019-05-19,34.7
2019-05-20,37.76
2019-05-21,34.7
2019-05-22,38.12
2019-05-23,41.72
2019-05-24,37.04
2019-05-25,34.16
2019-05-26,32.9
2019-05-27,43.7
2019-05-28,42.98
2019-05-29,39.02
2019-05-30,41.18
2019-05-31,43.16
2019-06-01,46.58
2019-06-02,48.74
2019-06-03,44.42
2019-06-04,42.08
2019-06-05,43.34
2019-06-06,38.12
2019-06-07,33.62
2019-06-08,31.1
2019-06-09,41.0
2019-06-10,46.22
2019-06-11,53.6
2019-06-12,52.34
2019-06-13,50.36
2019-06-14,48.02
2019-06-15,45.5
2019-06-16,47.48
2019-06-17,45.5
2019-06-18,46.04
2019-06-19,43.88
2019-06-20,38.3
2019-06-21,33.62
2019-06-22,39.56
2019-06-23,41.18
2019-06-24,42.44
2019-06-25,41.18
2019-06-26,37.94
2019-06-27,38.66
2019-06-28,37.22
2019-06-29,42.08
2019-06-30,42.98
2019-07-01,46.58
2019-07-02,46.22
2019-07-03,41.0
2019-07-04,42.08
2019-07-05,45.86
2019-07-06,44.96
2019-07-07,42.8
2019-07-08,42.44
2019-07-09,48.02
2019-07-10,50.54
2019-07-11,54.5
2019-07-12,51.08
2019-07-13,50.36
2019-07-14,48.2
2019-07-15,48.74
2019-07-16,49.82
2019-07-17,45.5
2019-07-18,48.92
2019-07-19,46.58
2019-07-20,45.68
2019-07-21,49.28
2019-07-22,52.88
2019-07-23,50.9
2019-07-24,44.96
2019-07-25,52.7
2019-07-26,54.68
2019-07-27,49.64
2019-07-28,49.82
2019-07-29,49.46
2019-07-30,48.38
2019-07-31,46.4
2019-08-01,50.18
2019-08-02,48.92
2019-08-03,51.8
2019-08-04,54.68
2019-08-05,55.4
2019-08-06,55.04
2019-08-07,54.5
2019-08-08,50.54
2019-08-09,48.38
2019-08-10,46.04
2019-08-11,46.58
2019-08-12,43.34
2019-08-13,46.58
2019-08-14,48.38
2019-08-15,48.02
2019-08-16,45.32
2019-08-17,42.62
2019-08-18,48.92
2019-08-19,51.08
2019-08-20,51.62
2019-08-21,48.92
2019-08-22,48.02
2019-08-23,51.62
2019-08-24,48.38
2019-08-25,48.38
2019-08-26,53.06
2019-08-27,59.0
2019-08-28,55.94
2019-08-29,53.24
2019-08-30,52.88
2019-08-31,49.82
2019-09-01,49.64
2019-09-02,48.2
2019-09-03,50.36
2019-09-04,49.82
2019-09-05,54.5
2019-09-06,51.8
2019-09-07,47.84
2019-09-08,46.58
2019-09-09,43.88
2019-09-10,45.32
2019-09-11,39.92
2019-09-12,44.42
2019-09-13,44.06
2019-09-14,45.86
2019-09-15,44.06
2019-09-16,42.08
2019-09-17,39.2
2019-09-18,42.08
2019-09-19,43.16
2019-09-20,40.82
2019-09-21,37.58
2019-09-22,42.62
2019-09-23,43.52
2019-09-24,43.7
2019-09-25,48.38
2019-09-26,44.24
2019-09-27,38.84
2019-09-28,34.16
2019-09-29,33.8
2019-09-30,33.08
2019-10-01,32.0
2019-10-02,32.54
2019-10-03,37.76
2019-10-04,33.26
2019-10-05,32.18
2019-10-06,37.58
2019-10-07,36.86
2019-10-08,33.98
2019-10-09,29.66
2019-10-10,31.82
2019-10-11,35.42
2019-10-12,33.08
2019-10-13,34.16
2019-10-14,32.72
2019-10-15,37.94
2019-10-16,39.38
2019-10-17,37.4
2019-10-18,38.84
2019-10-19,36.32
2019-10-20,35.24
2019-10-21,38.12
2019-10-22,35.24
2019-10-23,32.36
2019-10-24,41.54
2019-10-25,38.3
2019-10-26,33.8
2019-10-27,30.2
2019-10-28,28.94
2019-10-29,28.4
2019-10-30,28.4
2019-10-31,28.58
2019-11-01,39.2
2019-11-02,36.32
2019-11-03,33.8
2019-11-04,37.22
2019-11-05,35.24
2019-11-06,34.88
2019-11-07,38.66
2019-11-08,36.14
2019-11-09,35.78
2019-11-10,35.96
2019-11-11,42.08
2019-11-12,36.5
2019-11-13,34.88
2019-11-14,38.48
2019-11-15,39.56
2019-11-16,34.7
2019-11-17,37.76
2019-11-18,38.3
2019-11-19,35.06
2019-11-20,32.54
2019-11-21,30.2
2019-11-22,28.76
2019-11-23,30.2
2019-11-24,29.66
2019-11-25,27.68
2019-11-26,26.06
2019-11-27,20.12
2019-11-28,20.48
2019-11-29,17.06
2019-11-30,16.88
2019-12-01,30.2
2019-12-02,33.8
2019-12-03,33.08
2019-12-04,32.18
2019-12-05,30.92
2019-12-06,37.04
2019-12-07,35.42
2019-12-08,31.28
2019-12-09,29.12
2019-12-10,27.86
2019-12-11,33.98
2019-12-12,35.42
2019-12-13,31.1
2019-12-14,27.32
2019-12-15,23.18
2019-12-16,21.74
2019-12-17,27.68
2019-12-18,29.3
2019-12-19,34.16
2019-12-20,35.42
2019-12-21,32.0
2019-12-22,31.1
2019-12-23,25.52
2019-12-24,21.02
2019-12-25,23.54
2019-12-26,19.58
2019-12-27,17.78
2019-12-28,23.9
2019-12-29,30.92
2019-12-30,29.66
2019-12-31,29.84
2020-01-01,35.24
2020-01-02,31.46
2020-01-03,28.94
2020-01-04,30.02
2020-01-05,28.76
2020-01-06,28.94
2020-01-07,27.68
2020-01-08,31.82
2020-01-09,26.78
2020-01-10,26.24
2020-01-11,28.76
2020-01-12,28.4
2020-01-13,26.78
2020-01-14,23.9
2020-01-15,14.9
2020-01-16,27.86
2020-01-17,23.9
2020-01-18,28.94
2020-01-19,32.36
2020-01-20,33.98
2020-01-21,30.56
2020-01-22,30.74
2020-01-23,32.18
2020-01-24,32.9
2020-01-25,35.06
2020-01-26,34.16
2020-01-27,33.62
2020-01-28,32.54
2020-01-29,31.64
2020-01-30,34.7
2020-01-31,32.0
2020-02-01,31.28
2020-02-02,21.74
2020-02-03,16.7
2020-02-04,12.02
2020-02-05,27.32
2020-02-06,29.66
2020-02-07,26.24
2020-02-08,26.78
2020-02-09,20.3
2020-02-10,18.68
2020-02-11,24.44
2020-02-12,24.98
2020-02-13,23.36
2020-02-14,30.92
2020-02-15,30.2
2020-02-16,29.12
2020-02-17,24.98
2020-02-18,23.36
2020-02-19,27.5
2020-02-20,29.66
2020-02-21,26.42
2020-02-22,25.7
2020-02-23,27.68
2020-02-24,24.08
2020-02-25,26.42
2020-02-26,26.78
2020-02-27,28.4
2020-02-28,30.02
2020-02-29,27.32
2020-03-01,19.76
2020-03-02,25.88
2020-03-03,28.04
2020-03-04,27.68
2020-03-05,29.66
2020-03-06,32.18
2020-03-07,28.22
2020-03-08,26.6
2020-03-09,31.28
2020-03-10,30.38
2020-03-11,28.04
2020-03-12,26.42
2020-03-13,26.06
2020-03-14,24.98
2020-03-15,24.62
2020-03-16,24.62
2020-03-17,30.92
2020-03-18,30.38
2020-03-19,25.16
2020-03-20,26.06
2020-03-21,29.84
2020-03-22,28.76
2020-03-23,30.38
2020-03-24,28.4
2020-03-25,26.96
2020-03-26,21.92
2020-03-27,28.4
2020-03-28,32.18
2020-03-29,33.98
2020-03-30,34.34
2020-03-31,28.94
2020-04-01,25.88
2020-04-02,25.34
2020-04-03,27.86
2020-04-04,29.48
2020-04-05,32.0
2020-04-06,29.48
2020-04-07,33.08
2020-04-08,32.36
2020-04-09,36.68
2020-04-10,32.54
2020-04-11,33.08
2020-04-12,31.28
2020-04-13,28.94
2020-04-14,29.66
2020-04-15,31.28
2020-04-16,35.78
2020-04-17,34.34
2020-04-18,32.18
2020-04-19,34.16
2020-04-20,33.62
2020-04-21,38.48
2020-04-22,37.58
2020-04-23,38.48
2020-04-24,39.38
2020-04-25,39.02
2020-04-26,38.12
2020-04-27,40.64
2020-04-28,40.82
2020-04-29,45.68
2020-04-30,37.04
2020-05-01,33.26
2020-05-02,34.7
2020-05-03,32.18
2020-05-04,31.82
2020-05-05,37.76
2020-05-06,35.06
2020-05-07,38.48
2020-05-08,45.86
2020-05-09,50.36
2020-05-10,47.12
2020-05-11,42.62
2020-05-12,39.2
2020-05-13,37.22
2020-05-14,36.5
2020-05-15,32.9
2020-05-16,43.52
2020-05-17,34.88
2020-05-18,34.88
2020-05-19,38.48
2020-05-20,38.12
2020-05-21,35.6
2020-05-22,33.08
2020-05-23,31.64
2020-05-24,35.96
2020-05-25,43.7
2020-05-26,46.58
2020-05-27,47.3
2020-05-28,53.06
2020-05-29,56.66
2020-05-30,44.42
2020-05-31,42.62
2020-06-01,46.76
2020-06-02,44.96
2020-06-03,45.86
2020-06-04,44.06
2020-06-05,43.52
2020-06-06,33.98
2020-06-07,33.44
2020-06-08,35.78
2020-06-09,39.74
2020-06-10,44.42
2020-06-11,49.64
2020-06-12,42.62
2020-06-13,37.58
2020-06-14,42.98
2020-06-15,40.1
2020-06-16,
2020-06-17,34.52
2020-06-18,44.06
2020-06-19,48.2
2020-06-20,50.36
2020-06-21,51.08
2020-06-22,47.48
2020-06-23,55.76
2020-06-24,51.26
2020-06-25,46.4
2020-06-26,51.44
2020-06-27,48.2
2020-06-28,42.26
2020-06-29,42.8
2020-06-30,41.9
2020-07-01,41.0
2020-07-02,37.58
2020-07-03,43.88
2020-07-04,43.88
2020-07-05,42.98
2020-07-06,44.24
2020-07-07,43.88
2020-07-08,41.36
2020-07-09,43.52
2020-07-10,46.04
2020-07-11,49.82
2020-07-12,45.68
2020-07-13,46.94
2020-07-14,47.3
2020-07-15,51.98
2020-07-16,50.54
2020-07-17,48.2
2020-07-18,50.36
2020-07-19,50.9
2020-07-20,52.7
2020-07-21,52.7
2020-07-22,53.42
2020-07-23,51.08
2020-07-24,46.76
2020-07-25,46.22
2020-07-26,58.46
2020-07-27,60.8
2020-07-28,55.4
2020-07-29,56.48
2020-07-30,55.76
2020-07-31,55.04
2020-08-01,51.8
2020-08-02,49.64
2020-08-03,48.74
2020-08-04,50.54
2020-08-05,51.8
2020-08-06,45.86
2020-08-07,42.62
2020-08-08,45.5
2020-08-09,47.48
2020-08-10,55.22
2020-08-11,49.82
2020-08-12,46.4
2020-08-13,45.5
2020-08-14,49.82
2020-08-15,60.26
2020-08-16,58.64
2020-08-17,59.18
2020-08-18,57.74
2020-08-19,51.98
2020-08-20,49.64
2020-08-21,49.82
2020-08-22,51.26
2020-08-23,52.88
2020-08-24,54.32
2020-08-25,53.6
2020-08-26,48.92
2020-08-27,48.2
2020-08-28,47.12
2020-08-29,48.56
2020-08-30,43.34
2020-08-31,43.7
2020-09-01,53.96
2020-09-02,55.22
2020-09-03,59.36
2020-09-04,53.96
2020-09-05,49.82
2020-09-06,54.14
2020-09-07,49.46
2020-09-08,47.12
2020-09-09,54.5
2020-09-10,50.36
2020-09-11,47.3
2020-09-12,46.58
2020-09-13,48.56
2020-09-14,48.56
2020-09-15,47.66
2020-09-16,48.56
2020-09-17,45.5
2020-09-18,46.22
2020-09-19,43.34
2020-09-20,39.74
2020-09-21,39.92
2020-09-22,44.78
2020-09-23,43.16
2020-09-24,42.44
2020-09-25,40.1
2020-09-26,41.9
2020-09-27,41.0
2020-09-28,51.44
2020-09-29,50.18
2020-09-30,46.76
2020-10-01,47.84
2020-10-02,45.32
2020-10-03,45.14
2020-10-04,43.34
2020-10-05,44.6
2020-10-06,46.04
2020-10-07,42.98
2020-10-08,40.82
2020-10-09,40.1
2020-10-10,40.64
2020-10-11,37.76
2020-10-12,42.98
2020-10-13,43.34
2020-10-14,39.02
2020-10-15,37.94
2020-10-16,43.7
2020-10-17,40.82
2020-10-18,38.48
2020-10-19,41.9
2020-10-20,39.2
2020-10-21,32.9
2020-10-22,31.28
2020-10-23,35.6
2020-10-24,33.26
2020-10-25,25.52
2020-10-26,30.38
2020-10-27,31.64
2020-10-28,35.96
2020-10-29,35.42
2020-10-30,34.16
2020-10-31,35.42
2020-11-01,40.28
2020-11-02,38.48
2020-11-03,36.32
2020-11-04,40.1
2020-11-05,37.22
2020-11-06,32.54
2020-11-07,28.04
2020-11-08,24.98
2020-11-09,19.76
2020-11-10,30.02
2020-11-11,27.32
2020-11-12,24.44
2020-11-13,32.18
2020-11-14,31.82
2020-11-15,36.68
2020-11-16,34.7
2020-11-17,35.96
2020-11-18,34.16
2020-11-19,28.4
2020-11-20,27.5
2020-11-21,29.84
2020-11-22,28.94
2020-11-23,32.18
2020-11-24,29.84
2020-11-25,30.74
2020-11-26,29.12
2020-11-27,28.22
2020-11-28,25.7
2020-11-29,30.02
2020-11-30,28.22
2020-12-01,28.58
2020-12-02,33.8
2020-12-03,30.74
2020-12-04,29.84
2020-12-05,34.7
2020-12-06,32.9
2020-12-07,33.26
2020-12-08,31.46
2020-12-09,30.38
2020-12-10,26.24
2020-12-11,27.5
2020-12-12,26.6
2020-12-13,31.1
2020-12-14,29.12
2020-12-15,30.38
2020-12-16,30.92
2020-12-17,31.64
2020-12-18,27.14
2020-12-19,33.26
2020-12-20,35.06
2020-12-21,31.1
2020-12-22,25.34
2020-12-23,26.06
2020-12-24,26.78
2020-12-25,33.98
2020-12-26,24.62
2020-12-27,24.44
2020-12-28,21.38
2020-12-29,14.0
2020-12-30,29.12
2020-12-31,32.9
2021-01-01,32.9
2021-01-02,31.1
2021-01-03,35.6
2021-01-04,31.1
2021-01-05,26.6
2021-01-06,32.9
2021-01-07,27.14
2021-01-08,26.24
2021-01-09,24.62
2021-01-10,29.84
2021-01-11,29.66
2021-01-12,36.14
2021-01-13,32.54
2021-01-14,31.28
2021-01-15,30.56
2021-01-16,30.56
2021-01-17,29.12
2021-01-18,29.3
2021-01-19,27.5
2021-01-20,27.68
2021-01-21,30.74
2021-01-22,30.38
2021-01-23,23.18
2021-01-24,20.3
2021-01-25,23.72
2021-01-26,14.0
2021-01-27,26.42
2021-01-28,25.88
2021-01-29,19.22
2021-01-30,30.92
2021-01-31,35.6
2021-02-01,35.06
2021-02-02,28.4
2021-02-03,19.4
2021-02-04,15.26
2021-02-05,22.46
2021-02-06,21.38
2021-02-07,19.04
2021-02-08,18.14
2021-02-09,28.58
2021-02-10,25.34
2021-02-11,28.58
2021-02-12,33.8
2021-02-13,30.92
2021-02-14,30.56
2021-02-15,32.36
2021-02-16,29.66
2021-02-17,27.5
2021-02-18,28.04
2021-02-19,31.28
2021-02-20,28.22
2021-02-21,27.86
2021-02-22,26.96
2021-02-23,28.4
2021-02-24,24.08
2021-02-25,24.8
2021-02-26,27.32
2021-02-27,23.9
2021-02-28,17.42
2021-03-01,27.86
2021-03-02,25.7
2021-03-03,24.08
2021-03-04,27.32
2021-03-05,30.2
2021-03-06,28.4
2021-03-07,28.76
2021-03-08,25.88
2021-03-09,27.14
2021-03-10,29.3
2021-03-11,21.92
2021-03-12,23.54
2021-03-13,24.08
2021-03-14,27.68
2021-03-15,19.58
2021-03-16,11.12
2021-03-17,23.36
2021-03-18,33.44
2021-03-19,27.86
2021-03-20,30.2
2021-03-21,28.76
2021-03-22,29.3
2021-03-23,23.18
2021-03-24,25.16
2021-03-25,29.3
2021-03-26,22.82
2021-03-27,26.6
2021-03-28,28.58
2021-03-29,23.72
2021-03-30,23.0
2021-03-31,33.08
2021-04-01,30.74
2021-04-02,30.92
2021-04-03,31.64
2021-04-04,30.92
2021-04-05,30.56
2021-04-06,28.94
2021-04-07,30.38
2021-04-08,30.38
2021-04-09,27.86
2021-04-10,30.2
2021-04-11,29.48
2021-04-12,33.44
2021-04-13,32.54
2021-04-14,33.26
2021-04-15,30.56
2021-04-16,36.68
2021-04-17,35.06
2021-04-18,35.06
2021-04-19,33.8
2021-04-20,38.12
2021-04-21,35.06
2021-04-22,31.64
2021-04-23,30.38
2021-04-24,33.62
2021-04-25,32.18
2021-04-26,31.46
2021-04-27,29.84
2021-04-28,32.54
2021-04-29,38.48
2021-04-30,37.4
2021-05-01,41.0
2021-05-02,35.06
2021-05-03,32.0
2021-05-04,41.36
2021-05-05,41.72
2021-05-06,39.2
2021-05-07,33.98
2021-05-08,30.38
2021-05-09,32.36
2021-05-10,35.96
2021-05-11,36.86
2021-05-12,41.36
2021-05-13,41.0
2021-05-14,42.62
2021-05-15,43.34
2021-05-16,41.72
2021-05-17,42.44
2021-05-18,39.74
2021-05-19,32.18
2021-05-20,29.66
2021-05-21,33.26
2021-05-22,35.24
2021-05-23,34.52
2021-05-24,37.04
2021-05-25,37.22
2021-05-26,34.88
2021-05-27,37.94
2021-05-28,36.86
2021-05-29,41.54
2021-05-30,43.7
2021-05-31,47.84
2021-06-01,53.78
2021-06-02,53.42
2021-06-03,51.44
2021-06-04,48.56
2021-06-05,39.38
2021-06-06,35.06
2021-06-07,37.22
2021-06-08,37.94
2021-06-09,37.58
2021-06-10,42.62
2021-06-11,42.26
2021-06-12,43.16
2021-06-13,48.02
2021-06-14,44.6
2021-06-15,40.82
2021-06-16,40.64
2021-06-17,43.34
2021-06-18,46.58
2021-06-19,47.12
2021-06-20,51.26
2021-06-21,56.12
2021-06-22,52.16
2021-06-23,48.92
2021-06-24,51.08
2021-06-25,51.26
2021-06-26,53.96
2021-06-27,60.44
2021-06-28,61.88
2021-06-29,58.1
2021-06-30,54.68
2021-07-01,54.5
2021-07-02,54.32
2021-07-03,56.84
2021-07-04,54.14
2021-07-05,53.78
2021-07-06,57.2
2021-07-07,48.92
2021-07-08,48.38
2021-07-09,50.72
2021-07-10,53.24
2021-07-11,51.8
2021-07-12,52.7
2021-07-13,49.28
2021-07-14,51.62
2021-07-15,50.54
2021-07-16,47.66
2021-07-17,48.02
2021-07-18,51.26
2021-07-19,52.52
2021-07-20,49.82
2021-07-21,47.48
2021-07-22,44.24
2021-07-23,44.6
2021-07-24,51.26
2021-07-25,52.34
2021-07-26,56.66
2021-07-27,56.84
2021-07-28,55.22
2021-07-29,53.42
2021-07-30,59.36
2021-07-31,58.82
2021-08-01,57.38
2021-08-02,57.92
2021-08-03,54.14
2021-08-04,54.32
2021-08-05,49.82
2021-08-06,44.78
2021-08-07,48.92
2021-08-08,50.9
2021-08-09,49.28
2021-08-10,52.16
2021-08-11,59.0
2021-08-12,55.94
2021-08-13,61.7
2021-08-14,55.76
2021-08-15,58.46
2021-08-16,55.04
2021-08-17,42.98
2021-08-18,39.38
2021-08-19,43.34
2021-08-20,45.5
2021-08-21,44.78
2021-08-22,41.72
2021-08-23,41.9
2021-08-24,46.58
2021-08-25,44.24
2021-08-26,42.62
2021-08-27,42.98
2021-08-28,49.82
2021-08-29,48.92
2021-08-30,45.5
2021-08-31,39.56
2021-09-01,39.92
2021-09-02,43.52
2021-09-03,48.92
2021-09-04,45.86
2021-09-05,48.2
2021-09-06,48.02
2021-09-07,51.44
2021-09-08,50.72
2021-09-09,51.44
2021-09-10,48.92
2021-09-11,46.58
2021-09-12,45.86
2021-09-13,41.0
2021-09-14,46.76
2021-09-15,44.06
2021-09-16,40.1
2021-09-17,43.34
2021-09-18,40.46
2021-09-19,37.58
2021-09-20,36.68
2021-09-21,48.38
2021-09-22,43.16
2021-09-23,41.54
2021-09-24,50.18
2021-09-25,46.76
2021-09-26,42.98
2021-09-27,37.76
2021-09-28,35.42
2021-09-29,34.52
2021-09-30,39.56
2021-10-01,39.56
2021-10-02,42.8
2021-10-03,42.26
2021-10-04,44.06
2021-10-05,39.56
2021-10-06,35.24
2021-10-07,33.98
2021-10-08,35.06
2021-10-09,31.46
2021-10-10,33.08
2021-10-11,29.84
2021-10-12,25.88
2021-10-13,31.28
2021-10-14,30.92
2021-10-15,33.26
2021-10-16,37.04
2021-10-17,34.52
2021-10-18,33.26
2021-10-19,33.62
2021-10-20,37.76
2021-10-21,42.8
2021-10-22,39.38
2021-10-23,35.78
2021-10-24,35.96
2021-10-25,32.9
2021-10-26,37.04
2021-10-27,43.34
2021-10-28,44.24
2021-10-29,42.26
2021-10-30,41.36
2021-10-31,41.18
2021-11-01,41.72
2021-11-02,42.44
2021-11-03,40.82
2021-11-04,37.4
2021-11-05,35.78
2021-11-06,31.28
2021-11-07,29.48
2021-11-08,29.12
2021-11-09,33.98
2021-11-10,33.44
2021-11-11,39.38
2021-11-12,36.86
2021-11-13,39.74
2021-11-14,37.76
2021-11-15,36.68
2021-11-16,31.28
2021-11-17,30.92
2021-11-18,33.44
2021-11-19,32.54
2021-11-20,29.12
2021-11-21,32.18
2021-11-22,29.66
2021-11-23,27.86
2021-11-24,26.78
2021-11-25,31.46
2021-11-26,30.56
2021-11-27,37.76
2021-11-28,34.88
2021-11-29,32.54
2021-11-30,32.18
2021-12-01,36.68
2021-12-02,34.16
2021-12-03,33.44
2021-12-04,32.18
2021-12-05,31.46
2021-12-06,32.72
2021-12-07,
2021-12-08,30.92
2021-12-09,25.88
2021-12-10,24.98
2021-12-11,30.92
2021-12-12,29.66
2021-12-13,27.5
2021-12-14,18.5
2021-12-15,21.2
2021-12-16,28.76
2021-12-17,20.84
2021-12-18,22.82
2021-12-19,32.54
2021-12-20,33.62
2021-12-21,31.1
2021-12-22,30.38
2021-12-23,28.76
2021-12-24,26.96
2021-12-25,23.0
2021-12-26,21.38
2021-12-27,20.84
2021-12-28,21.38
2021-12-29,15.44
2021-12-30,14.54
2021-12-31,
2022-01-01,12.2
2022-01-02,20.66
2022-01-03,29.12
2022-01-04,32.18
2022-01-05,34.34
2022-01-06,33.98
2022-01-07,31.28
2022-01-08,24.98
2022-01-09,31.64
2022-01-10,32.36
2022-01-11,30.74
2022-01-12,30.56
2022-01-13,29.66
2022-01-14,32.54
2022-01-15,29.84
2022-01-16,27.5
2022-01-17,26.78
2022-01-18,27.14
2022-01-19,32.18
2022-01-20,31.82
2022-01-21,28.58
2022-01-22,33.08
2022-01-23,30.38
2022-01-24,25.7
2022-01-25,33.44
2022-01-26,26.96
2022-01-27,33.44
2022-01-28,29.66
2022-01-29,25.34
2022-01-30,25.88
2022-01-31,23.18
2022-02-01,20.48
2022-02-02,26.24
2022-02-03,25.88
2022-02-04,27.86
2022-02-05,22.64
2022-02-06,33.26
2022-02-07,28.4
2022-02-08,26.6
2022-02-09,36.5
2022-02-10,32.9
2022-02-11,31.28
2022-02-12,32.72
2022-02-13,29.48
2022-02-14,28.76
2022-02-15,27.14
2022-02-16,29.66
2022-02-17,26.42
2022-02-18,28.58
2022-02-19,27.5
2022-02-20,26.42
2022-02-21,24.44
2022-02-22,13.46
2022-02-23,7.7
2022-02-24,9.14
2022-02-25,18.5
2022-02-26,26.24
2022-02-27,33.08
2022-02-28,33.44
2022-03-01,33.26
2022-03-02,32.54
2022-03-03,31.82
2022-03-04,28.4
2022-03-05,28.22
2022-03-06,26.78
2022-03-07,27.5
2022-03-08,27.68
2022-03-09,26.96
2022-03-10,21.92
2022-03-11,25.88
2022-03-12,30.02
2022-03-13,29.84
2022-03-14,34.16
2022-03-15,32.9
2022-03-16,29.84
2022-03-17,30.74
2022-03-18,29.66
2022-03-19,28.58
2022-03-20,25.34
2022-03-21,29.48
2022-03-22,34.52
2022-03-23,35.06
2022-03-24,32.36
2022-03-25,34.34
2022-03-26,32.36
2022-03-27,36.86
2022-03-28,39.02
2022-03-29,36.86
2022-03-30,32.72
2022-03-31,30.56
2022-04-01,29.48
2022-04-02,32.0
2022-04-03,30.56
2022-04-04,31.46
2022-04-05,29.66
2022-04-06,32.36
2022-04-07,36.5
2022-04-08,30.2
2022-04-09,28.04
2022-04-10,28.4
2022-04-11,24.62
2022-04-12,25.52
2022-04-13,27.14
2022-04-14,27.5
2022-04-15,19.94
2022-04-16,27.5
2022-04-17,24.8
2022-04-18,30.2
2022-04-19,26.42
2022-04-20,30.74
2022-04-21,30.92
2022-04-22,29.12
2022-04-23,29.84
2022-04-24,31.1
2022-04-25,33.98
2022-04-26,31.64
2022-04-27,31.64
2022-04-28,32.18
2022-04-29,31.64
2022-04-30,34.52
2022-05-01,32.18
2022-05-02,32.36
2022-05-03,32.9
2022-05-04,36.32
2022-05-05,41.18
2022-05-06,36.68
2022-05-07,31.1
2022-05-08,29.12
2022-05-09,28.76
2022-05-10,29.84
2022-05-11,32.0
2022-05-12,32.9
2022-05-13,33.26
2022-05-14,41.9
2022-05-15,39.56
2022-05-16,34.52
2022-05-17,40.46
2022-05-18,37.04
2022-05-19,30.38
2022-05-20,29.3
2022-05-21,32.9
2022-05-22,33.44
2022-05-23,37.4
2022-05-24,36.32
2022-05-25,41.9
2022-05-26,43.7
2022-05-27,41.9
2022-05-28,35.24
2022-05-29,34.16
2022-05-30,32.72
2022-05-31,34.34
2022-06-01,40.82
2022-06-02,44.96
2022-06-03,41.54
2022-06-04,44.24
2022-06-05,43.34
2022-06-06,39.74
2022-06-07,40.28
2022-06-08,46.04
2022-06-09,42.98
2022-06-10,51.8
2022-06-11,52.52
2022-06-12,37.4
2022-06-13,35.24
2022-06-14,36.86
2022-06-15,37.76
2022-06-16,40.46
2022-06-17,39.38
2022-06-18,37.04
2022-06-19,35.42
2022-06-20,36.14
2022-06-21,43.88
2022-06-22,46.94
2022-06-23,46.4
2022-06-24,42.98
2022-06-25,56.48
2022-06-26,58.1
2022-06-27,53.24
2022-06-28,45.86
2022-06-29,43.52
2022-06-30,45.5
2022-07-01,45.14
2022-07-02,46.04
2022-07-03,47.48
2022-07-04,48.38
2022-07-05,50.9
2022-07-06,50.18
2022-07-07,50.72
2022-07-08,47.12
2022-07-09,48.38
2022-07-10,48.74
2022-07-11,58.64
2022-07-12,57.2
2022-07-13,54.68
2022-07-14,51.08
2022-07-15,51.44
2022-07-16,49.46
2022-07-17,50.18
2022-07-18,46.58
2022-07-19,54.68
2022-07-20,52.7
2022-07-21,51.62
2022-07-22,47.48
2022-07-23,44.06
2022-07-24,50.9
2022-07-25,61.34
2022-07-26,57.2
2022-07-27,58.82
2022-07-28,57.02
2022-07-29,64.04
2022-07-30,66.2
2022-07-31,58.46
2022-08-01,59.0
2022-08-02,59.18
2022-08-03,54.86
2022-08-04,50.18
2022-08-05,53.6
2022-08-06,51.62
2022-08-07,55.4
2022-08-08,58.28
2022-08-09,54.86
2022-08-10,49.82
2022-08-11,48.92
2022-08-12,49.64
2022-08-13,44.6
2022-08-14,45.86
2022-08-15,47.3
2022-08-16,49.28
2022-08-17,58.64
2022-08-18,56.48
2022-08-19,50.9
2022-08-20,48.02
2022-08-21,48.2
2022-08-22,48.38
2022-08-23,48.2
2022-08-24,51.8
2022-08-25,55.4
2022-08-26,52.52
2022-08-27,47.66
2022-08-28,46.76